Weather History for KHEF - November, 2012

Change the Weather History Date:

Sunday, November 18, 2012

  Actual Average Record
Temperature  
Mean Temperature 42 °F -  
Max Temperature 53 °F 54 °F 69 °F (2013)
Min Temperature 32 °F 30 °F 17 °F (1997)
Degree Days  
Heating Degree Days 22    
Moisture  
Dew Point 36 °F    
Average Humidity 77    
Maximum Humidity 93    
Minimum Humidity 58    
Precipitation  
Precipitation 0.00 in - - ()
Sea Level Pressure  
Sea Level Pressure 30.55 in    
Wind  
Wind Speed 4 mph (NNE)    
Max Wind Speed 10 mph    
Max Gust Speed -    
Visibility 10 miles    
Events      
Averages and records for this station are not official NWS values.
T = Trace of Precipitation, MM = Missing Value Source: NWS Daily Summary

Daily Weather History Graph

Daily Weather History Graph

Search for Another Location

Airport or City:

Trip Planner

Search our weather history database for the weather conditions in past years. The results will help you decide how hot, cold, wet, or windy it might be!

Date:

Astronomy

Nov. 18, 2012 Rise Set
Actual Time 6:56 AM EST 4:54 PM EST
Civil Twilight 6:27 AM EST 5:22 PM EST
Nautical Twilight 5:55 AM EST 5:55 PM EST
Astronomical Twilight 5:23 AM EST 6:26 PM EST
Moon 11:22 AM EST (11/18) 10:10 PM EST (11/18)
Length of Visible Light 10h 55m
Length of Day
9h 58m
Waxing Crescent, 30% of the Moon is Illuminated
Nov 18
Waxing Crescent
Nov 20
First Quarter
Nov 28
Full
Dec 6
Last Quarter
Dec 13
New

Hourly Weather History & Observations

Time (EST) Temp. Windchill Dew Point Humidity Pressure Visibility Wind Dir Wind Speed Gust Speed Precip Events Conditions
12:15 AM 33.8 °F - 30.2 °F 87% 30.59 in 10.0 mi Calm Calm - N/A   Clear
12:35 AM 33.8 °F - 32.0 °F 93% 30.59 in 10.0 mi Calm Calm - N/A   Clear
12:55 AM 32.0 °F - 30.2 °F 93% 30.58 in 10.0 mi Calm Calm - N/A   Clear
1:15 AM 32.0 °F - 30.2 °F 93% 30.59 in 10.0 mi Calm Calm - N/A   Clear
1:35 AM 32.0 °F - 30.2 °F 93% 30.58 in 10.0 mi Calm Calm - N/A   Clear
1:55 AM 32.0 °F 26.4 °F 30.2 °F 93% 30.58 in 10.0 mi North 5.8 mph - N/A   Clear
2:15 AM 32.0 °F 28.7 °F 30.2 °F 93% 30.59 in 10.0 mi NNE 3.5 mph - N/A   Clear
2:35 AM 33.8 °F 30.8 °F 30.2 °F 87% 30.59 in 10.0 mi NNW 3.5 mph - N/A   Clear
2:55 AM 32.0 °F - 30.2 °F 93% 30.58 in 10.0 mi Calm Calm - N/A   Clear
3:15 AM 32.0 °F 28.7 °F 30.2 °F 93% 30.58 in 10.0 mi NNE 3.5 mph - N/A   Clear
3:35 AM 33.8 °F 30.8 °F 30.2 °F 87% 30.57 in 10.0 mi North 3.5 mph - N/A   Clear
3:55 AM 33.8 °F - 30.2 °F 87% 30.58 in 10.0 mi Calm Calm - N/A   Clear
4:15 AM 32.0 °F 27.5 °F 30.2 °F 93% 30.58 in 10.0 mi North 4.6 mph - N/A   Clear
4:35 AM 33.8 °F 30.8 °F 30.2 °F 87% 30.59 in 10.0 mi North 3.5 mph - N/A   Clear
4:55 AM 33.8 °F 29.6 °F 30.2 °F 87% 30.59 in 10.0 mi North 4.6 mph - N/A   Clear
5:15 AM 33.8 °F 29.6 °F 32.0 °F 93% 30.60 in 10.0 mi North 4.6 mph - N/A   Clear
5:35 AM 35.6 °F 30.7 °F 33.8 °F 93% 30.60 in 10.0 mi North 5.8 mph - N/A   Clear
5:55 AM 33.8 °F 28.6 °F 32.0 °F 93% 30.60 in 10.0 mi North 5.8 mph - N/A   Clear
6:15 AM 35.6 °F 32.8 °F 32.0 °F 87% 30.60 in 10.0 mi North 3.5 mph - N/A   Clear
6:55 AM 33.8 °F 27.7 °F 32.0 °F 93% 30.59 in 10.0 mi NNE 6.9 mph - N/A   Clear
9:50 AM 44.6 °F 40.7 °F 37.4 °F 76% 30.61 in 10.0 mi East 6.9 mph - N/A   Clear
1:45 PM 53.6 °F - 39.2 °F 58% 30.53 in 10.0 mi Variable 4.6 mph - N/A   Clear
2:35 PM 53.6 °F - 39.2 °F 58% 30.53 in 10.0 mi East 6.9 mph - N/A   Clear
2:55 PM 53.6 °F - 39.2 °F 58% 30.52 in 10.0 mi NNE 10.4 mph - N/A   Clear
3:15 PM 53.6 °F - 39.2 °F 58% 30.52 in 10.0 mi NE 6.9 mph - N/A   Clear
3:35 PM 51.8 °F - 39.2 °F 62% 30.51 in 10.0 mi NNE 9.2 mph - N/A   Clear
3:55 PM 51.8 °F - 39.2 °F 62% 30.52 in 10.0 mi NNE 10.4 mph - N/A   Clear
4:15 PM 51.8 °F - 39.2 °F 62% 30.52 in 10.0 mi NE 8.1 mph - N/A   Partly Cloudy
4:35 PM 50.0 °F - 37.4 °F 62% 30.52 in 10.0 mi NE 8.1 mph - N/A   Mostly Cloudy
4:55 PM 50.0 °F - 39.2 °F 66% 30.52 in 10.0 mi NE 5.8 mph - N/A   Mostly Cloudy
5:15 PM 51.8 °F - 39.2 °F 62% 30.53 in 10.0 mi NE 4.6 mph - N/A   Overcast
5:35 PM 51.8 °F - 39.2 °F 62% 30.52 in 10.0 mi NE 4.6 mph - N/A   Overcast
5:45 PM 50.0 °F - 39.2 °F 66% 30.53 in 10.0 mi ENE 4.6 mph - N/A   Overcast
5:55 PM 50.0 °F - 39.2 °F 66% 30.52 in 10.0 mi NE 5.8 mph - N/A   Overcast
6:15 PM 50.0 °F - 39.2 °F 66% 30.53 in 10.0 mi NE 6.9 mph - N/A   Overcast
6:35 PM 48.2 °F - 39.2 °F 71% 30.53 in 10.0 mi NE 5.8 mph - N/A   Overcast
6:45 PM 48.2 °F - 39.2 °F 71% 30.53 in 10.0 mi NE 8.1 mph - N/A   Overcast
6:55 PM 48.2 °F - 39.2 °F 71% 30.54 in 10.0 mi NNE 6.9 mph - N/A   Overcast
7:15 PM 48.2 °F - 39.2 °F 71% 30.54 in 10.0 mi NNE 5.8 mph - N/A   Overcast
7:35 PM 48.2 °F - 39.2 °F 71% 30.54 in 10.0 mi NNE 4.6 mph - N/A   Overcast
7:45 PM 46.4 °F 43.5 °F 39.2 °F 76% 30.55 in 10.0 mi NE 5.8 mph - N/A   Overcast
7:55 PM 48.2 °F - 39.2 °F 71% 30.55 in 10.0 mi NNE 5.8 mph - N/A   Overcast
8:15 PM 48.2 °F - 39.2 °F 71% 30.54 in 10.0 mi NNE 6.9 mph - N/A   Overcast
8:35 PM 48.2 °F - 39.2 °F 71% 30.54 in 10.0 mi North 6.9 mph - N/A   Overcast
8:45 PM 48.2 °F - 39.2 °F 71% 30.54 in 10.0 mi North 8.1 mph - N/A   Overcast
8:55 PM 48.2 °F - 39.2 °F 71% 30.53 in 10.0 mi North 8.1 mph - N/A   Overcast
9:15 PM 48.2 °F - 39.2 °F 71% 30.53 in 10.0 mi North 8.1 mph - N/A   Overcast
9:35 PM 48.2 °F - 39.2 °F 71% 30.53 in 10.0 mi North 6.9 mph - N/A   Overcast
9:45 PM 48.2 °F - 39.2 °F 71% 30.53 in 10.0 mi NNE 6.9 mph - N/A   Overcast
9:55 PM 46.4 °F 43.5 °F 39.2 °F 76% 30.52 in 10.0 mi NNE 5.8 mph - N/A   Overcast
10:15 PM 46.4 °F 43.5 °F 39.2 °F 76% 30.52 in 10.0 mi North 5.8 mph - N/A   Mostly Cloudy
10:35 PM 46.4 °F 45.2 °F 39.2 °F 76% 30.52 in 10.0 mi North 3.5 mph - N/A   Mostly Cloudy
10:55 PM 46.4 °F 45.2 °F 39.2 °F 76% 30.51 in 10.0 mi North 3.5 mph - N/A   Overcast
11:15 PM 46.4 °F 43.5 °F 39.2 °F 76% 30.51 in 10.0 mi North 5.8 mph - N/A   Overcast
11:35 PM 46.4 °F 42.9 °F 39.2 °F 76% 30.51 in 10.0 mi North 6.9 mph - N/A   Overcast